This is the latest recevied weather packets stored in our database for station/object EA1GHG-11. If no packets are shown the sender has not sent any weather packets the latest 10 day(s).
| Time | Temp. | Humidity | Pressure | Rain* | Wind** | Luminosity | Snow |
|---|---|---|---|---|---|---|---|
| 1788508779 | 18.89° C | 100% | 1025.4 hPa | - | - | - | - |
| 1788507279 | 18.89° C | 100% | 1025.4 hPa | - | - | - | - |
| 1788505778 | 17.22° C | 100% | 1025.4 hPa | - | - | - | - |
| 1788504278 | 16.11° C | 100% | 1025.3 hPa | - | - | - | - |
| 1788502814 | 16.11° C | 100% | 1025 hPa | - | - | - | - |
| 1788502778 | 16.11° C | 100% | 1025 hPa | - | - | - | - |
| 1788501278 | 15.56° C | 100% | 1024.7 hPa | - | - | - | - |
| 1788499778 | 16.11° C | 100% | 1024.7 hPa | - | - | - | - |
| 1788498305 | 16.11° C | 100% | 1024.4 hPa | - | - | - | - |
| 1788496778 | 16.67° C | 100% | 1024.3 hPa | - | - | - | - |
| 1788495278 | 16.11° C | 100% | 1024.4 hPa | - | - | - | - |
| 1788493778 | 16.67° C | 100% | 1024.6 hPa | - | - | - | - |
| 1788492277 | 16.67° C | 100% | 1024.7 hPa | - | - | - | - |
| 1788490776 | 17.22° C | 100% | 1024.7 hPa | - | - | - | - |
| 1788489276 | 17.22° C | 100% | 1024.8 hPa | - | - | - | - |
| 1788488676 | 17.22° C | 100% | 1024.8 hPa | - | - | - | - |
| 1788487176 | 17.78° C | 100% | 1025 hPa | - | - | - | - |
| 1788485676 | 17.78° C | 100% | 1025.3 hPa | - | - | - | - |
| 1788484176 | 17.78° C | 100% | 1025.3 hPa | - | - | - | - |
| 1788482676 | 18.33° C | 100% | 1025.6 hPa | - | - | - | - |
| 1788481176 | 18.33° C | 100% | 1025.6 hPa | - | - | - | - |
| 1788479676 | 18.89° C | 100% | 1025.7 hPa | - | - | - | - |
| 1788478176 | 19.44° C | 100% | 1025.6 hPa | - | - | - | - |
| 1788476710 | 19.44° C | 100% | 1025.5 hPa | - | - | - | - |
| 1788476676 | 19.44° C | 100% | 1025.5 hPa | - | - | - | - |
* Rain since midnight (hover to see other rain measurements)
** Current wind speed in m/s (hover to see current wind gust speed)